This is the latest recevied weather packets stored in our database for station/object N8VDS-10. If no packets are shown the sender has not sent any weather packets the latest 10 day(s).
| Time | Temp. | Humidity | Pressure | Rain* | Wind** | Luminosity | Snow |
|---|---|---|---|---|---|---|---|
| 1777728343 | 5° C | 59% | 1021.8 hPa | 0 mm | - | 361 W/m² | - |
| 1777728040 | 5° C | 60% | 1021.9 hPa | 0 mm | - | 349 W/m² | - |
| 1777727737 | 4.44° C | 62% | 1022.1 hPa | 0 mm | - | 331 W/m² | - |
| 1777727434 | 4.44° C | 62% | 1022 hPa | 0 mm | - | 312 W/m² | - |
| 1777727132 | 4.44° C | 62% | 1021.9 hPa | 0 mm | - | 302 W/m² | - |
| 1777726830 | 4.44° C | 64% | 1021.9 hPa | 0 mm | - | 286 W/m² | - |
| 1777726526 | 3.89° C | 65% | 1021.8 hPa | 0 mm | - | 266 W/m² | - |
| 1777725920 | 3.89° C | 66% | 1021.9 hPa | 0 mm | - | 240 W/m² | - |
| 1777725617 | 3.33° C | 68% | 1021.9 hPa | 0 mm | - | 44 W/m² | - |
| 1777725315 | 3.33° C | 69% | 1022 hPa | 0 mm | - | 203 W/m² | - |
| 1777725011 | 3.33° C | 70% | 1021.9 hPa | 0 mm | - | 176 W/m² | - |
| 1777724405 | 2.78° C | 71% | 1021.9 hPa | 0 mm | - | 166 W/m² | - |
| 1777724102 | 2.78° C | 72% | 1022 hPa | 0 mm | - | 151 W/m² | - |
| 1777723800 | 2.78° C | 72% | 1021.9 hPa | 0 mm | - | 135 W/m² | - |
| 1777723496 | 2.78° C | 72% | 1021.8 hPa | 0 mm | - | 128 W/m² | - |
| 1777723193 | 2.22° C | 73% | 1021.9 hPa | 0 mm | - | 115 W/m² | - |
| 1777721980 | 2.22° C | 75% | 1021.7 hPa | 0 mm | - | 42 W/m² | - |
| 1777721678 | 2.22° C | 75% | 1021.8 hPa | 0 mm | - | 45 W/m² | - |
| 1777721377 | 1.67° C | 76% | 1021.8 hPa | 0 mm | - | 51 W/m² | - |
| 1777721073 | 1.67° C | 77% | 1021.7 hPa | 0 mm | - | 39 W/m² | - |
| 1777720771 | 1.67° C | 80% | 1021.8 hPa | 0 mm | - | 37 W/m² | - |
| 1777720468 | 1.11° C | 81% | 1021.8 hPa | 0 mm | - | 25 W/m² | - |
| 1777720165 | 0.56° C | 82% | 1021.7 hPa | 0 mm | - | 24 W/m² | - |
| 1777719863 | 0.56° C | 83% | 1021.4 hPa | 0 mm | - | 18 W/m² | - |
| 1777719560 | 0.56° C | 83% | 1021.8 hPa | 0 mm | - | 16 W/m² | - |
* Rain latest hour (hover to see other rain measurements)
** Current wind speed in m/s (hover to see current wind gust speed)